Content
SEND FEEDBACK

Daily
Averages
Monthly
Summary
United States of America

MADELINE ISLAND, WISCONSIN


Home > North America > United States > Wisconsin
Elevation: 646 feet     Latitude: 46 47N     Longitude: 090 45W

WEATHER
 
SELECT A DAY
Number of Records: 181,503;   Date Range: 10/16/98 - 10/1/14
 
SHARE

PRINT THIS DATA

[ ← Previous Day ]
WEATHER ALMANAC - FEBRUARY 13, 2013
[ Next Day → ]
[ °C ]   °F
Weather ElementAverageHighLow
Temperature29.7 °F39.9 °F (1:53 pm)21.9 °F (6:53 am)
Dewpoint22.7 °F26.6 °F (9:04 pm)17.1 °F (6:53 am)
Humidity75.9 %93 % (9:04 pm)53 % (1:53 pm)
Barometer29.68 in29.73 in (1:53 am)29.63 in (1:53 pm)
Wind Speed6.6 mph10.4 mph (8:53 am)
Weather ElementAverage
Visibility9.1 mi
Wind DirectionSSE (153.1 °)

Weather ElementTotal
Precipitation---
Heating Degree Days34.1 (Base 65)
Averaged from 26 records on February 13, 2013
WEATHER CONDITIONS BREAKOUT
WIND DIRECTION BREAKOUT
WEATHER BY HOUR - FEBRUARY 13, 2013
[ °C ]   °F
Local TimeTemperatureDewpointHumidityBarometerVisibilityWind DirectionWind SpeedGust SpeedPrecipitationEventsConditions
1:53 AM27.0 °F19.0 °F72 %29.73 in10.0 miWSW (250°)9.2 mphOvercast
2:53 AM26.1 °F19.0 °F75 %29.73 in10.0 miSW (230°)8.1 mphOvercast
3:53 AM25.0 °F19.0 °F78 %29.72 in10.0 miSW (220°)9.2 mphOvercast
4:53 AM25.0 °F18.0 °F75 %29.72 in10.0 miWSW (240°)8.1 mphOvercast
6:53 AM21.9 °F17.1 °F82 %29.70 in10.0 miSW (220°)6.9 mphOvercast
7:53 AM23.0 °F17.1 °F78 %29.71 in10.0 miSW (230°)8.1 mphScattered Clouds
8:53 AM25.0 °F18.0 °F75 %29.70 in10.0 miSW (230°)10.4 mphClear
9:53 AM28.0 °F19.9 °F72 %29.68 in10.0 miSW (230°)8.1 mphClear
10:53 AM30.9 °F21.0 °F67 %29.67 in10.0 miWSW (240°)9.2 mphClear
11:53 AM34.0 °F21.9 °F61 %29.66 in10.0 miWSW (240°)8.1 mphClear
12:53 PM37.0 °F23.0 °F57 %29.65 in10.0 miWSW (240°)6.9 mphClear
1:53 PM39.9 °F24.1 °F53 %29.63 in10.0 miWSW (250°)8.1 mphClear
2:53 PM39.9 °F26.1 °F58 %29.63 in10.0 miWNW (290°)9.2 mphClear
3:53 PM39.0 °F25.0 °F57 %29.64 in10.0 miWest (270°)3.5 mphScattered Clouds
4:53 PM35.1 °F26.1 °F70 %29.65 in10.0 miENE (60°)6.9 mphOvercast
5:53 PM33.1 °F25.0 °F72 %29.66 in10.0 miNNE (30°)6.9 mphOvercast
6:53 PM30.0 °F25.0 °F82 %29.69 in10.0 miENE (70°)9.2 mphOvercast
7:34 PM28.4 °F24.8 °F86 %29.66 in2.5 miENE (70°)6.9 mph0.00 inSnowLight Snow
7:53 PM28.9 °F25.0 °F85 %29.70 in2.5 miENE (70°)5.8 mph0.00 inSnowLight Snow
8:16 PM28.4 °F24.8 °F86 %29.66 in4.0 miENE (70°)4.6 mph0.00 inSnowLight Snow
8:25 PM28.4 °F24.8 °F86 %29.66 in7.0 miENE (60°)4.6 mph0.00 inOvercast
8:53 PM28.0 °F26.1 °F92 %29.70 in10.0 miNE (50°)4.6 mph0.00 inOvercast
9:04 PM28.4 °F26.6 °F93 %29.66 in10.0 miENE (60°)4.6 mphOvercast
9:53 PM28.0 °F25.0 °F88 %29.70 in10.0 miENE (60°)4.6 mphOvercast
10:53 PM28.0 °F25.0 °F88 %29.69 in10.0 miCalm0.00 inOvercast
11:53 PM27.0 °F23.0 °F85 %29.70 in10.0 miCalmOvercast
Hourly data recorded from KASX, located miles away from Madeline Island, Wisconsin







STORIES FROM OUR PARTNERS